Regional Weather Roundup
Issued by NWS

Home | Current Version | Previous Version | Text Only | Print | Product List | Glossary On
Versions: 1 2 3 4 5 6 7 8 9 10 11 12 13 14 15 16 17 18 19 20 21 22 23 24 25 26 27 28 29 30 31 32 33 34 35 36 37 38 39 40 41 42 43 44 45 46 47 48 49 50
829
ASUS43 KLMK 200202
RWRKY
KENTUCKY REGIONAL WEATHER ROUNDUP
NATIONAL WEATHER SERVICE LOUISVILLE KY
1000 PM EDT THU OCT 19 2017

NOTE "FAIR" INDICATES FEW OR NO CLOUDS BELOW 12,000 FEET
WITH NO SIGNIFICANT WEATHER AND/OR OBSTRUCTIONS TO VISIBILITY.

KYZ001>023-026-027-061>063-070>075-200300-
WESTERN AND SOUTH CENTRAL KENTUCKY

CITY           SKY/WX    TMP DP  RH WIND       PRES   REMARKS
PADUCAH        CLEAR     55  49  80 CALM      30.19F
HENDERSON      CLEAR     54  50  86 S3        30.21F
OWENSBORO      CLEAR     59  52  77 CALM      30.22S
HOPKINSVILLE   CLEAR     59  51  75 CALM      30.22S
BOWLING GREEN  CLEAR     57  52  83 CALM      30.24S
GLASGOW        NOT AVBL
$$

KYZ024-025-028>034-038-045-046-053-200300-
NORTH CENTRAL KENTUCKY

CITY           SKY/WX    TMP DP  RH WIND       PRES   REMARKS
LOUISVILLE/SDF CLEAR     62  53  72 SE5       30.22S
LOUISVILLE/LOU CLEAR     59  54  83 CALM      30.23S
FORT KNOX      CLEAR     54  50  88 CALM      30.22F
$$

KYZ035>037-039>044-047>052-055>060-089>105-200300-
NORTHEAST KENTUCKY

CITY           SKY/WX    TMP DP  RH WIND       PRES   REMARKS
LEXINGTON      CLEAR     55  49  80 S5        30.25S
COVINGTON      CLOUDY    58  52  80 S5        30.23R
FRANKFORT      CLEAR     54  48  80 CALM      30.23F
$$

KYZ054-064>069-076>088-106>120-200300-
SOUTHEAST KENTUCKY

CITY           SKY/WX    TMP DP  RH WIND       PRES   REMARKS
JACKSON        CLEAR     61  45  55 CALM      30.26F
LONDON         CLEAR     53  49  86 CALM      30.27R
SOMERSET       NOT AVBL
MIDDLESBORO    CLEAR     50  49  97 CALM      30.29S
MONTICELLO     CLEAR     46  45  96 W6        30.28S
$$





USA.gov is the U.S. government's official web portal to all federal, state and local government web resources and services.